CW3007 Weather Reports


Display with metric or nautical units.
time (UTC)temp
F
wind
direction
speed
MPH
gust
MPH
rain 1hr
in
rain 24hr
in
rain mn
in
humidity
%
barometer
mb
20260903123033 82 181 6.0 14.0 0.00 0.00 0.00 80 1011.1
20260903122033 81 174 7.0 12.0 0.00 0.00 0.00 80 1011.0
20260903121033 81 169 5.0 14.0 0.00 0.00 0.00 80 1010.9
20260903120033 82 152 7.0 14.0 0.00 0.00 0.00 80 1010.9
20260903115033 82 178 8.0 15.0 0.00 0.00 0.00 80 1011.0
20260903113033 82 189 6.0 10.0 0.00 0.00 0.00 80 1011.0
20260903112033 82 200 9.0 12.0 0.00 0.00 0.00 80 1011.1
20260903111033 82 154 7.0 13.0 0.00 0.00 0.00 81 1011.0
20260903110033 82 158 5.0 12.0 0.00 0.00 0.00 81 1010.9
20260903104033 81 159 7.0 14.0 0.00 0.00 0.00 81 1010.7
20260903102032 81 187 9.0 12.0 0.00 0.00 0.00 80 1010.7
20260903101033 81 192 6.0 13.0 0.00 0.00 0.00 80 1010.6
20260903095032 82 194 10.0 12.0 0.00 0.00 0.00 80 1010.5
20260903094032 82 172 7.0 14.0 0.00 0.00 0.00 80 1010.6
20260903093033 82 173 7.0 13.0 0.00 0.00 0.00 79 1010.7
20260903091033 82 193 5.0 16.0 0.00 0.00 0.00 79 1010.9
20260903090032 82 170 11.0 15.0 0.00 0.00 0.00 79 1010.9
20260903085033 82 141 11.0 16.0 0.00 0.00 0.00 79 1010.9
20260903084032 82 168 12.0 15.0 0.00 0.00 0.00 78 1010.9
20260903083033 82 161 12.0 15.0 0.00 0.00 0.00 78 1010.8
20260903082032 82 172 8.0 16.0 0.00 0.00 0.00 78 1010.8
20260903081032 82 154 6.0 13.0 0.00 0.00 0.00 77 1010.9
20260903080033 82 190 11.0 15.0 0.00 0.00 0.00 77 1010.9
20260903075032 82 200 7.0 14.0 0.00 0.00 0.00 77 1011.0
20260903074033 82 173 6.0 12.0 0.00 0.00 0.00 76 1010.9
20260903073033 82 180 9.0 15.0 0.00 0.00 0.00 76 1010.9
20260903072033 82 174 10.0 14.0 0.00 0.00 0.00 76 1011.0
20260903071033 82 159 6.0 10.0 0.00 0.00 0.00 75 1011.2
20260903065032 82 193 5.0 15.0 0.00 0.00 0.00 75 1011.2
20260903064033 82 188 4.0 11.0 0.00 0.00 0.00 75 1011.3
20260903062032 82 153 5.0 11.0 0.00 0.00 0.00 75 1011.4
20260903061032 82 163 4.0 10.0 0.00 0.00 0.00 75 1011.4
20260903060032 82 153 2.0 10.0 0.00 0.00 0.00 75 1011.4
20260903055032 82 188 3.0 9.0 0.00 0.00 0.00 75 1011.4
20260903053033 81 150 6.0 10.0 0.00 0.00 0.00 76 1011.3
20260903052032 81 150 4.0 10.0 0.00 0.00 0.00 76 1011.3
20260903051032 81 150 3.0 10.0 0.00 0.00 0.00 76 1011.4
20260903050032 81 148 3.0 9.0 0.00 0.00 0.00 75 1011.4
20260903045032 81 109 2.0 8.0 0.00 0.00 0.00 75 1011.4
20260903044032 82 128 4.0 8.0 0.00 0.00 0.00 74 1011.3
20260903043032 82 151 2.0 8.0 0.00 0.00 0.00 73 1011.3
20260903042032 82 123 3.0 9.0 0.00 0.00 0.00 72 1011.3
20260903041032 83 103 4.0 9.0 0.00 0.00 0.00 70 1011.3
20260903040032 84 117 2.0 11.0 0.00 0.00 0.00 68 1011.2
20260903035032 84 109 3.0 13.0 0.00 0.00 0.00 67 1011.3
20260903034032 84 130 8.0 13.0 0.00 0.00 0.00 65 1011.4
20260903033032 85 103 4.0 12.0 0.00 0.00 0.00 64 1011.4
20260903031032 86 79 8.0 13.0 0.00 0.00 0.00 63 1011.0
20260903030032 87 93 6.0 12.0 0.00 0.00 0.00 61 1010.8
20260903025032 88 82 10.0 11.0 0.00 0.00 0.00 59 1010.6
20260903024032 87 76 2.0 9.0 0.00 0.00 0.00 57 1010.3
20260903023032 87 70 4.0 7.0 0.00 0.00 0.00 57 1010.0
20260903022032 88 88 4.0 11.0 0.00 0.00 0.00 56 1009.9
20260903021032 89 66 5.0 7.0 0.00 0.00 0.00 53 1009.7
20260903015032 90 129 1.0 3.0 0.00 0.00 0.00 52 1009.1
20260903014032 91 111 0.0 5.0 0.00 0.00 0.00 51 1009.2
20260903013032 91 159 2.0 7.0 0.00 0.00 0.00 51 1009.0
20260903012032 92 163 1.0 7.0 0.00 0.00 0.00 50 1009.1
20260903011032 92 128 2.0 5.0 0.00 0.00 0.00 50 1009.1
20260903010032 92 150 3.0 5.0 0.00 0.00 0.00 50 1009.1
20260903005032 92 123 2.0 4.0 0.00 0.00 0.00 49 1009.0
20260903004032 93 132 0.0 8.0 0.00 0.00 0.00 48 1009.1
20260903003032 93 184 3.0 8.0 0.00 0.00 0.00 47 1009.1
20260903002032 94 205 3.0 9.0 0.00 0.00 0.00 47 1009.1
20260903001032 96 197 4.0 10.0 0.00 0.00 0.00 45 1009.0
20260903000032 97 132 3.0 3.0 0.00 0.00 0.00 42 1009.0
20260902235032 96 233 1.0 3.0 0.00 0.00 0.00 42 1008.9
20260902233032 96 243 3.0 7.0 0.00 0.00 0.00 42 1009.0
20260902232032 97 205 3.0 5.0 0.00 0.00 0.00 42 1008.8
20260902231032 97 182 2.0 8.0 0.00 0.00 0.00 41 1008.8
20260902230032 98 202 7.0 7.0 0.00 0.00 0.00 41 1009.0
20260902225032 98 317 1.0 5.0 0.00 0.00 0.00 40 1008.8
20260902224032 98 32 1.0 6.0 0.00 0.00 0.00 40 1008.7
20260902223032 98 38 4.0 10.0 0.00 0.00 0.00 40 1008.8
20260902222032 99 355 3.0 10.0 0.00 0.00 0.00 39 1008.8
20260902221032 100 68 3.0 7.0 0.00 0.00 0.00 37 1008.7
20260902220032 100 15 1.0 3.0 0.00 0.00 0.00 35 1008.8
20260902215032 101 234 2.0 9.0 0.00 0.00 0.00 34 1008.7
20260902212032 103 252 3.0 8.0 0.00 0.00 0.00 33 1008.8
20260902211032 102 253 3.0 5.0 0.00 0.00 0.00 35 1009.0
20260902210032 101 117 1.0 8.0 0.00 0.00 0.00 36 1009.1
20260902205032 102 234 3.0 3.0 0.00 0.00 0.00 33 1009.3
20260902204032 103 11 1.0 7.0 0.00 0.00 0.00 34 1009.4
20260902203032 102 191 4.0 11.0 0.00 0.00 0.00 34 1009.5
20260902202032 102 224 9.0 10.0 0.00 0.00 0.00 34 1009.6
20260902201032 101 235 5.0 7.0 0.00 0.00 0.00 37 1009.9
20260902195032 101 178 6.0 8.0 0.00 0.00 0.00 38 1010.2
20260902194032 101 202 10.0 10.0 0.00 0.00 0.00 36 1010.4
20260902193032 100 185 6.0 9.0 0.00 0.00 0.00 38 1010.6
20260902192032 101 178 1.0 9.0 0.00 0.00 0.00 37 1010.8
20260902191032 101 180 2.0 10.0 0.00 0.00 0.00 37 1011.0
20260902190032 100 292 1.0 8.0 0.00 0.00 0.00 39 1011.1
20260902185032 100 57 0.0 5.0 0.00 0.00 0.00 38 1011.3
20260902183032 99 250 3.0 6.0 0.00 0.00 0.00 41 1011.6
20260902182032 98 159 2.0 8.0 0.00 0.00 0.00 40 1011.8
20260902181032 97 232 4.0 9.0 0.00 0.00 0.00 41 1012.0
20260902180032 97 235 2.0 11.0 0.00 0.00 0.00 42 1012.3
20260902175032 98 211 3.0 9.0 0.00 0.00 0.00 42 1012.4
20260902173032 98 245 3.0 8.0 0.00 0.00 0.00 42 1012.7
20260902172032 97 184 4.0 8.0 0.00 0.00 0.00 43 1013.0
20260902171032 97 194 6.0 9.0 0.00 0.00 0.00 42 1013.0
20260902170032 96 194 4.0 12.0 0.00 0.00 0.00 43 1013.2
20260902165032 96 217 3.0 12.0 0.00 0.00 0.00 44 1013.3
20260902164032 96 209 7.0 9.0 0.00 0.00 0.00 45 1013.4
20260902163031 96 225 3.0 5.0 0.00 0.00 0.00 45 1013.5
20260902162031 95 257 0.0 8.0 0.00 0.00 0.00 46 1013.5
20260902161032 94 331 2.0 9.0 0.00 0.00 0.00 49 1013.5
20260902160032 93 236 4.0 9.0 0.00 0.00 0.00 51 1013.5
20260902155031 92 195 2.0 8.0 0.00 0.00 0.00 51 1013.5
20260902154031 91 242 0.0 8.0 0.00 0.00 0.00 53 1013.6
20260902153032 91 211 3.0 6.0 0.00 0.00 0.00 54 1013.6
20260902152031 91 207 3.0 8.0 0.00 0.00 0.00 54 1013.7
20260902151031 90 283 0.0 4.0 0.00 0.00 0.00 56 1013.7
20260902150031 89 245 0.0 4.0 0.00 0.00 0.00 56 1013.7
20260902145032 89 227 0.0 6.0 0.00 0.00 0.00 58 1013.7
20260902144031 88 241 0.0 8.0 0.00 0.00 0.00 59 1013.8
20260902143032 87 223 4.0 7.0 0.00 0.00 0.00 60 1013.8
20260902141031 86 257 3.0 7.0 0.00 0.00 0.00 62 1013.8
20260902135032 85 249 0.0 6.0 0.00 0.00 0.00 65 1013.6
20260902134032 84 227 1.0 7.0 0.00 0.00 0.00 67 1013.5
20260902133032 82 228 1.0 5.0 0.00 0.00 0.00 70 1013.4
20260902131032 78 235 0.0 0.0 0.00 0.00 0.00 79 1013.3
20260902130032 76 235 0.0 0.0 0.00 0.00 0.00 81 1013.3
20260902125031 76 235 0.0 0.0 0.00 0.00 0.00 80 1013.1
20260902124032 75 235 0.0 0.0 0.00 0.00 0.00 80 1013.0